Location: Chèvreville
(49.1099°N, 2.8495°E)
Time: 11:17:40
(UTC+00:00)

SO-50 - Visible Passes

Search period start: 14 May 2025 00:00
Search period end: 24 May 2025 00:00
Orbit: 587 x 661 km, 64.6° (Epoch: 13 May)

Date Brightness Start Highest point End Pass type
(mag) Time Alt. Az. Time Alt. Az. Time Alt. Az.
16 May ? 03:01:29 10° SE 03:03:15 12° ESE 03:05:03 10° E visible
17 May ? 03:18:17 10° S 03:21:49 24° ESE 03:25:27 10° ENE visible
19 May ? 02:17:54 10° SE 02:20:06 14° ESE 02:22:21 10° E visible
20 May ? 02:35:01 10° S 02:38:42 27° ESE 02:42:29 10° ENE visible
21 May ? 02:53:10 10° SSW 02:57:26 52° ESE 03:01:51 10° NE visible
22 May ? 01:34:24 10° SE 01:36:57 15° ESE 01:39:32 10° ENE visible
22 May ? 03:11:55 10° SW 03:16:21 83° NW 03:20:55 10° NE visible
23 May ? 01:52:50 16° SSE 01:55:33 29° ESE 01:59:28 10° ENE visible
